Weather History for Gunnison, CO

Change the Weather History Date:

Tuesday, November 13, 2012

  Actual Average Record
Temperature  
Mean Temperature 26 °F -  
Max Temperature 42 °F 40 °F 57 °F (1999)
Min Temperature 10 °F 13 °F -5 °F (2000)
Degree Days  
Heating Degree Days 39    
Moisture  
Dew Point 11 °F    
Average Humidity 61    
Maximum Humidity 85    
Minimum Humidity 31    
Precipitation  
Precipitation 0.00 in - - ()
Sea Level Pressure  
Sea Level Pressure 30.38 in    
Wind  
Wind Speed 2 mph (West)    
Max Wind Speed 10 mph    
Max Gust Speed -    
Visibility 10 miles    
Events      
Averages and records for this station are not official NWS values.
T = Trace of Precipitation, MM = Missing Value Source: NWS Daily Summary

Daily Weather History Graph

Daily Weather History Graph

Search for Another Location

Airport:

Trip Planner

Search our weather history database for the weather conditions in past years. The results will help you decide how hot, cold, wet, or windy it might be!

Date:

Astronomy

Nov. 13, 2012 Rise Set
Actual Time 6:47 AM MST 4:55 PM MST
Civil Twilight 6:19 AM MST 5:24 PM MST
Nautical Twilight 5:47 AM MST 5:55 PM MST
Astronomical Twilight 5:16 AM MST 6:27 PM MST
Moon 6:29 AM MST (11/13) 4:51 PM MST (11/13)
Length of Visible Light 11h 04m
Length of Day
10h 07m
Waning Crescent, 0% of the Moon is Illuminated
Nov 13
Waning Crescent
Nov 13
New
Nov 20
First Quarter
Nov 28
Full
Dec 6
Last Quarter

Hourly Weather History & Observations

Time (MST) Temp. Windchill Dew Point Humidity Pressure Visibility Wind Dir Wind Speed Gust Speed Precip Events Conditions
12:15 AM 19.4 °F 12.8 °F 10.4 °F 68% 30.42 in 10.0 mi NE 4.6 mph - N/A   Mostly Cloudy
12:35 AM 19.4 °F - 8.6 °F 63% 30.41 in 10.0 mi Calm Calm - N/A   Mostly Cloudy
12:55 AM 19.4 °F - 8.6 °F 63% 30.40 in 10.0 mi Calm Calm - N/A   Partly Cloudy
1:15 AM 17.6 °F - 10.4 °F 73% 30.40 in 10.0 mi Calm Calm - N/A   Partly Cloudy
1:55 AM 17.6 °F - 10.4 °F 73% 30.39 in 10.0 mi Calm Calm - N/A   Clear
2:35 AM 15.8 °F - 8.6 °F 73% 30.39 in 10.0 mi Calm Calm - N/A   Clear
2:55 AM 15.8 °F - 8.6 °F 73% 30.39 in 10.0 mi Calm Calm - N/A   Partly Cloudy
3:15 AM 14.0 °F - 8.6 °F 79% 30.38 in 10.0 mi Calm Calm - N/A   Partly Cloudy
3:35 AM 15.8 °F - 8.6 °F 73% 30.38 in 10.0 mi Calm Calm - N/A   Clear
4:15 AM 12.2 °F - 6.8 °F 79% 30.39 in 10.0 mi Calm Calm - N/A   Clear
4:35 AM 10.4 °F 2.2 °F 5.0 °F 79% 30.39 in 10.0 mi ENE 4.6 mph - N/A   Clear
4:55 AM 10.4 °F 0.8 °F 5.0 °F 79% 30.39 in 10.0 mi ENE 5.8 mph - N/A   Clear
5:15 AM 10.4 °F 2.2 °F 5.0 °F 79% 30.40 in 10.0 mi NE 4.6 mph - N/A   Clear
5:35 AM 10.4 °F - 3.2 °F 73% 30.40 in 10.0 mi Calm Calm - N/A   Scattered Clouds
5:55 AM 12.2 °F - 6.8 °F 79% 30.40 in 10.0 mi Calm Calm - N/A   Overcast
6:15 AM 12.2 °F 6.1 °F 6.8 °F 79% 30.41 in 10.0 mi NE 3.5 mph - N/A   Overcast
6:35 AM 10.4 °F 2.2 °F 3.2 °F 73% 30.41 in 10.0 mi ENE 4.6 mph - N/A   Mostly Cloudy
6:55 AM 12.2 °F 6.1 °F 6.8 °F 79% 30.41 in 10.0 mi NNE 3.5 mph - N/A   Partly Cloudy
7:35 AM 10.4 °F - 6.8 °F 85% 30.43 in 10.0 mi Calm Calm - N/A   Scattered Clouds
7:55 AM 10.4 °F - 3.2 °F 73% 30.44 in 10.0 mi Calm Calm - N/A   Mostly Cloudy
8:15 AM 12.2 °F - 8.6 °F 85% 30.43 in 10.0 mi Calm Calm - N/A   Partly Cloudy
8:35 AM 14.0 °F - 6.8 °F 73% 30.43 in 10.0 mi Calm Calm - N/A   Clear
8:55 AM 15.8 °F - 10.4 °F 79% 30.44 in 10.0 mi Calm Calm - N/A   Clear
9:15 AM 17.6 °F - 10.4 °F 73% 30.43 in 10.0 mi Calm Calm - N/A   Clear
9:35 AM 19.4 °F - 12.2 °F 74% 30.43 in 10.0 mi Calm Calm - N/A   Partly Cloudy
9:55 AM 21.2 °F - 12.2 °F 68% 30.43 in 10.0 mi Calm Calm - N/A   Partly Cloudy
10:15 AM 24.8 °F - 12.2 °F 59% 30.42 in 10.0 mi Calm Calm - N/A   Clear
10:55 AM 26.6 °F - 12.2 °F 55% 30.42 in 10.0 mi Calm Calm - N/A   Clear
11:15 AM 28.4 °F 24.6 °F 12.2 °F 51% 30.40 in 10.0 mi SSE 3.5 mph - N/A   Clear
11:55 AM 30.2 °F - 14.0 °F 51% 30.37 in 10.0 mi Calm Calm - N/A   Clear
12:15 PM 33.8 °F - 14.0 °F 44% 30.36 in 10.0 mi Calm Calm - N/A   Clear
12:35 PM 35.6 °F - 14.0 °F 41% 30.35 in 10.0 mi Calm Calm - N/A   Clear
12:55 PM 35.6 °F 32.8 °F 15.8 °F 44% 30.34 in 10.0 mi South 3.5 mph - N/A   Clear
1:15 PM 37.4 °F 34.9 °F 12.2 °F 36% 30.34 in 10.0 mi SSW 3.5 mph - N/A   Clear
1:35 PM 39.2 °F - 14.0 °F 36% 30.34 in 10.0 mi Calm Calm - N/A   Clear
1:55 PM 39.2 °F 35.9 °F 15.8 °F 39% 30.33 in 10.0 mi SSW 4.6 mph - N/A   Clear
2:15 PM 39.2 °F 37.0 °F 14.0 °F 36% 30.33 in 10.0 mi South 3.5 mph - N/A   Clear
2:35 PM 39.2 °F 37.0 °F 14.0 °F 36% 30.33 in 10.0 mi SW 3.5 mph - N/A   Clear
2:55 PM 41.0 °F 36.4 °F 15.8 °F 36% 30.33 in 10.0 mi West 6.9 mph - N/A   Clear
3:35 PM 41.0 °F 39.0 °F 15.8 °F 36% 30.33 in 10.0 mi NE 3.5 mph - N/A   Clear
3:55 PM 42.8 °F 37.0 °F 14.0 °F 31% 30.32 in 9.0 mi WSW 10.4 mph - N/A   Unknown
4:15 PM 41.0 °F 35.8 °F 14.0 °F 33% 30.33 in 10.0 mi SW 8.1 mph - N/A   Clear
4:35 PM 39.2 °F 33.6 °F 12.2 °F 33% 30.33 in 10.0 mi SW 8.1 mph - N/A   Clear
4:55 PM 39.2 °F 34.2 °F 12.2 °F 33% 30.33 in 10.0 mi WSW 6.9 mph - N/A   Clear
5:15 PM 37.4 °F 33.8 °F 12.2 °F 36% 30.33 in 10.0 mi WSW 4.6 mph - N/A   Clear
5:35 PM 35.6 °F 28.0 °F 14.0 °F 41% 30.34 in 10.0 mi NNW 10.4 mph - N/A   Clear
5:55 PM 32.0 °F 24.8 °F 12.2 °F 44% 30.35 in 10.0 mi NNW 8.1 mph - N/A   Clear
6:15 PM 32.0 °F 25.6 °F 14.0 °F 48% 30.36 in 10.0 mi NNW 6.9 mph - N/A   Unknown
6:35 PM 30.2 °F - 15.8 °F 55% 30.36 in 10.0 mi Calm Calm - N/A   Clear
6:55 PM 30.2 °F - 15.8 °F 55% 30.37 in 10.0 mi Calm Calm - N/A   Clear
7:15 PM 28.4 °F - 14.0 °F 55% 30.37 in 10.0 mi Calm Calm - N/A   Clear
7:35 PM 28.4 °F - 14.0 °F 55% 30.37 in 10.0 mi Calm Calm - N/A   Clear
7:55 PM 26.6 °F 22.6 °F 14.0 °F 59% 30.38 in 10.0 mi NNW 3.5 mph - N/A   Clear
8:15 PM 24.8 °F - 15.8 °F 69% 30.39 in 10.0 mi Calm Calm - N/A   Clear
8:35 PM 24.8 °F - 14.0 °F 64% 30.39 in 10.0 mi Calm Calm - N/A   Clear
8:55 PM 23.0 °F - 12.2 °F 63% 30.40 in 10.0 mi Calm Calm - N/A   Clear
9:15 PM 21.2 °F - 14.0 °F 74% 30.40 in 10.0 mi Calm Calm - N/A   Clear
9:35 PM 21.2 °F - 12.2 °F 68% 30.40 in 10.0 mi Calm Calm - N/A   Clear
9:55 PM 21.2 °F - 10.4 °F 63% 30.40 in 10.0 mi Calm Calm - N/A   Clear
10:15 PM 19.4 °F - 14.0 °F 80% 30.40 in 10.0 mi Calm Calm - N/A   Clear
10:35 PM 17.6 °F - 10.4 °F 73% 30.41 in 10.0 mi Calm Calm - N/A   Clear
10:55 PM 17.6 °F - 10.4 °F 73% 30.41 in 10.0 mi Calm Calm - N/A   Clear
11:15 PM 19.4 °F - 12.2 °F 74% 30.42 in 10.0 mi Calm Calm - N/A   Clear
11:35 PM 17.6 °F - 10.4 °F 73% 30.42 in 10.0 mi Calm Calm - N/A   Clear
11:55 PM 15.8 °F - 10.4 °F 79% 30.42 in 10.0 mi Calm Calm - N/A   Clear